Stanley, ID

5:05 AM MST on January 19, 2018 (GMT -0700)
Stanley

Weather History for KSNT - March, 2013

Change the Weather History Date:

Monday, March 11, 2013

  Actual Average Record
Temperature  
Mean Temperature 34 °F 26 °F  
Max Temperature 41 °F 41 °F 57 °F (1983)
Min Temperature 26 °F 11 °F -30 °F (1922)
Degree Days  
Heating Degree Days 31 39  
Month to date heating degree days 454 447  
Since 1 July heating degree days 7539 7981  
Cooling Degree Days 0 0  
Month to date cooling degree days 0 0  
Year to date cooling degree days 0 0  
Moisture  
Dew Point 21 °F    
Average Humidity 58    
Maximum Humidity 75    
Minimum Humidity 40    
Precipitation  
Precipitation 0.00 in 0.05 in 0.70 in (1928)
Month to date precipitation 0.46 0.49  
Year to date precipitation 1.70 3.80  
Sea Level Pressure  
Sea Level Pressure 30.11 in    
Wind  
Wind Speed 5 mph (NNW)    
Max Wind Speed 15 mph    
Max Gust Speed 23 mph    
T = Trace of Precipitation, MM = Missing Value Source: NWS Daily Summary

Daily Weather History Graph

Daily Weather History Graph

Search for Another Location

Airport or City:

Trip Planner

Search our weather history database for the weather conditions in past years. The results will help you decide how hot, cold, wet, or windy it might be!

Date:

Astronomy

Mar. 11, 2013 Rise Set
Actual Time 7:58 AM MDT 7:41 PM MDT
Civil Twilight 7:29 AM MDT 8:10 PM MDT
Nautical Twilight 6:56 AM MDT 8:43 PM MDT
Astronomical Twilight 6:22 AM MDT 9:17 PM MDT
Moon 7:33 AM MDT (3/11) 8:00 PM MDT (3/11)
Length of Visible Light 12h 40m
Length of Day
11h 42m
Waning Crescent, 0% of the Moon is Illuminated
Mar 11
Waning Crescent
Mar 11
New
Mar 19
First Quarter
Mar 27
Full
Apr 2
Last Quarter

Hourly Weather History & Observations

Time (MDT) Temp. Windchill Dew Point Humidity Pressure Visibility Wind Dir Wind Speed Gust Speed Precip Events Conditions
12:51 AM 34.0 °F 28.8 °F 19.9 °F 56% 30.21 in - SSE 5.8 mph - N/A   Unknown
1:51 AM 34.0 °F - 19.0 °F 54% 30.17 in - Calm Calm - N/A   Unknown
2:51 AM 33.1 °F - 21.0 °F 61% 30.14 in - Calm Calm - N/A   Unknown
3:51 AM 37.0 °F 31.0 °F 25.0 °F 62% 30.10 in - WNW 8.1 mph 17.3 mph N/A   Unknown
4:51 AM 36.0 °F 31.1 °F 25.0 °F 64% 30.07 in - Variable 5.8 mph - N/A   Unknown
5:51 AM 36.0 °F 29.6 °F 24.1 °F 62% 30.06 in - WNW 8.1 mph - N/A   Unknown
6:51 AM 36.0 °F 30.3 °F 24.1 °F 62% 30.08 in - NW 6.9 mph - N/A   Unknown
7:51 AM 35.1 °F 31.0 °F 25.0 °F 67% 30.10 in - WNW 4.6 mph - N/A   Unknown
8:51 AM 34.0 °F 28.8 °F 25.0 °F 70% 30.12 in - NW 5.8 mph - N/A   Unknown
9:51 AM 34.0 °F 28.0 °F 27.0 °F 75% 30.13 in - North 6.9 mph - N/A   Unknown
10:51 AM 36.0 °F 31.1 °F 24.1 °F 62% 30.12 in - North 5.8 mph - N/A   Unknown
11:51 AM 39.0 °F 36.8 °F 21.0 °F 49% 30.11 in - Variable 3.5 mph - N/A   Unknown
12:51 PM 39.0 °F 33.4 °F 21.9 °F 50% 30.10 in - North 8.1 mph - N/A   Unknown
1:51 PM 39.9 °F 34.5 °F 19.9 °F 45% 30.09 in - North 8.1 mph - N/A   Unknown
2:51 PM 39.9 °F 33.4 °F 19.0 °F 43% 30.08 in - North 10.4 mph 18.4 mph N/A   Unknown
3:51 PM 39.9 °F 32.9 °F 18.0 °F 41% 30.05 in - North 11.5 mph 18.4 mph N/A   Unknown
4:51 PM 39.9 °F 33.9 °F 17.1 °F 40% 30.06 in - North 9.2 mph - N/A   Unknown
5:51 PM 37.0 °F 32.4 °F 17.1 °F 44% 30.07 in - NNW 5.8 mph - N/A   Unknown
6:51 PM 35.1 °F 30.1 °F 18.0 °F 50% 30.08 in - NNW 5.8 mph - N/A   Unknown
7:51 PM 34.0 °F - 19.0 °F 54% 30.09 in - Calm Calm - N/A   Unknown
8:51 PM 32.0 °F 28.7 °F 19.0 °F 59% 30.13 in - NNW 3.5 mph - N/A   Unknown
9:51 PM 30.0 °F 26.5 °F 19.9 °F 66% 30.15 in - South 3.5 mph - N/A   Unknown
10:51 PM 30.0 °F - 21.0 °F 69% 30.15 in - Calm Calm - N/A   Unknown
11:51 PM 30.0 °F - 19.9 °F 66% 30.14 in - Calm Calm - N/A   Unknown